Regional Weather Roundup
Issued by NWS Wakefield, VA

Home | Current Version | Previous Version | Graphics & Text | Print | Product List | Glossary On
Versions: 1 2 3 4 5 6 7 8 9 10 11 12 13 14 15 16 17 18 19 20 21 22 23 24 25 26 27
000
ASUS41 KAKQ 201515
RWRAKQ

REGIONAL WEATHER ROUNDUP
NATIONAL WEATHER SERVICE WAKEFIELD VA
1100 AM EDT SUN AUG 20 2017

Note: "fair" indicates few or no clouds below 12,000 feet with no
significant weather and/or obstructions to visibility. * = Denotes
station may not report precipitation (e.g., rain,snow,etc.),
thunder or fog.

VAZ042-051-052>054-056-201600-
NORTHERN VIRGINIA

CITY           SKY/WX    TMP DP  RH WIND       PRES   REMARKS
WASH NATIONAL  SUNNY     81  63  54 VRB5      30.14R
DULLES         SUNNY     78  62  57 N6        30.15R
FORT BELVOIR   SUNNY     81  61  51 N3        30.13S
QUANTICO       SUNNY     80  68  66 E8        30.14S
FREDERICKSBRG* SUNNY     80  64  58 NE7       30.13R
STAFFORD*      SUNNY     79  65  61 N6        30.18R
WARRENTON      MOSUNNY   79  63  56 N7        30.15R
CULPEPER*      MOSUNNY   79  66  64 NE6       30.15S
MANASSAS*      SUNNY     79  64  60 NE6       30.15R
LEESBURG*      SUNNY     79  63  57 N6        30.16R
WINCHESTER     SUNNY     73  61  64 N3        30.17R
FRONT ROYAL*   SUNNY     75  64  69 NE3       30.16R
LURAY*         SUNNY     77  63  61 N6        30.16S
$$

VAZ048-049-060>072-079>083-201600-
CENTRAL AND SOUTH CENTRAL VIRGINIA

CITY           SKY/WX    TMP DP  RH WIND       PRES   REMARKS
RICHMOND       SUNNY     82  68  62 VRB7      30.12R
CHESTERFIELD*  FAIR      83  65  54 NE8       30.13R
PETERSBURG*    SUNNY     83  63  52 NE9       30.12S
HANOVER        SUNNY     81  65  58 NE7       30.14R
TAPPAHANNOCK*  SUNNY     82  62  50 NE6       30.13S
QUINTON*       FAIR     N/A N/A N/A NE5       30.12R
CHARLOTTSVILLE SUNNY     80  65  59 E8        30.16R
GORDONSVILLE*  SUNNY     78  66  67 E3        30.15R
ORANGE*        SUNNY     77  64  65 CALM      30.15S
LOUISA*        SUNNY     79  64  61 N6        30.15R
BUMPASS*       FAIR      78  66  66 CALM      30.14R
FARMVILLE*     SUNNY     83  59  43 E5        30.13R
CREWE*         FAIR      81  60  48 E6        30.13S
FORT PICKETT*  FAIR     N/A N/A N/A E9        30.12S
CHASE CITY*    FAIR      82  69  65 E7        30.12S
CLARKSVILLE*   FAIR      81  72  74 NE5       30.11S
SOUTH HILL*    SUNNY     82  73  74 NE5       30.17S
LAWRENCEVILLE* FAIR      82  71  69 NE8       30.11S
EMPORIA*       SUNNY     82  72  69 NE7       30.11S
$$

VAZ088>098-201600-
SOUTHEAST VIRGINIA

CITY           SKY/WX    TMP DP  RH WIND       PRES   REMARKS
NORFOLK        SUNNY     85  75  72 NE7       30.10R
VIRGINIA BEACH MOSUNNY   84  75  74 NE6       30.09R
NORFOLK NAVAL  MOSUNNY   87  75  67 NE8       30.11R HX  96
WEST POINT*    SUNNY     83  66  56 NE5       30.13R
SALUDA*        FAIR      81  70  68 E5        30.11R
NEWPORT NEWS   SUNNY     84  71  65 E9        30.10R
LANGLEY AFB    MOSUNNY   83  75  75 NE12      30.10R
FORT EUSTIS    MOSUNNY   87  74  64 NE8       30.08R HX  95
WILLIAMSBURG*  SUNNY     86  75  70 CALM      30.12R HX  95
HR EXEC AP*    FAIR      84  75  74 N5        30.07S
FRANKLIN*      SUNNY     84  70  63 NE3       30.11R
US460-WAKEFLD  MOSUNNY   84  76  76 VRB5      30.11R
$$

VAZ020-022-025-037-045-201600-
WEST CENTRAL AND SOUTHWEST VIRGINIA

CITY           SKY/WX    TMP DP  RH WIND       PRES   REMARKS
STAUNTON*      SUNNY     76  66  70 CALM      30.19R
WAYNESBORO*    SUNNY     78  65  63 E6        30.18R
HOT SPRINGS VA SUNNY     72  61  68 CALM      30.29S
LYNCHBURG      SUNNY     81  65  58 NE5       30.16R
DANVILLE       SUNNY     84  69  60 N7        30.13R
SOUTH BOSTON*  FAIR      83  69  62 N5        30.12S
MARTINSVILLE   SUNNY     83  66  56 E5        30.18R
ROANOKE        MOSUNNY   82  64  54 CALM      30.18R
BLACKSBURG     SUNNY     78  66  66 E7        30.24S
DUBLIN*        SUNNY     79  67  66 E5        30.23R
MARION*        SUNNY     79  46  31 E6        30.26R
HILLSVILLE*    SUNNY     76  60  57 CALM      30.24R
RICHLANDS*     FAIR      75  64  67 N3        30.24R
WISE*          PTSUNNY   77  64  65 W3        30.25R
ABINGDON*      SUNNY     80  67  66 CALM      30.21R
$$

MDZ021>025-VAZ099-100-201600-
SOUTHERN MARYLAND AND THE DELMARVA PENINSULA

CITY           SKY/WX    TMP DP  RH WIND       PRES   REMARKS
PATUXENT RIVER SUNNY     80  67  64 N9        30.12R
BAY BRIDGE APT SUNNY     77  61  57 N7        30.13R
LEONARDTOWN    SUNNY     77  63  61 N5        30.14S
DOVER          MOSUNNY   77  63  61 N8        30.10R
GEORGETOWN     SUNNY     80  61  52 N8        30.11S
EASTON         NOT AVBL
CAMBRIDGE      SUNNY     79  64  61 N6        30.12R
SALISBURY      SUNNY     81  65  58 N8        30.10S
OCEAN CITY     SUNNY     81  67  62 NW8       30.11R
WALLOPS ISLAND SUNNY     82  68  62 N7        30.11R
ACCOMACK*      SUNNY     82  69  64 E5        30.11R
$$

NCZ012>017-030>032-201600-
NORTH CENTRAL AND EASTERN NORTH CAROLINA

CITY           SKY/WX    TMP DP  RH WIND       PRES   REMARKS
ROANOKE RAPIDS FAIR      84  72  65 NE5       30.11R
RALEIGH        MOSUNNY   87  69  54 NE3       30.12R
ELIZABETH CITY CLOUDY    87  77  72 N6        30.10R HX  99
AHOSKIE*         N/A     83  72  68 CALM      30.10R
EDENTON*       CLOUDY    88  74  63 CALM      30.10R HX  96
CURRITUCK*     CLOUDY    83  74  74 N5        30.10S
KILL DEVIL HLS CLOUDY    82  73  76 CALM      30.09R
MANTEO         CLOUDY    83  76  79 N5        30.10R
CAPE HATTERAS  CLOUDY    82  77  84 CALM      30.10R
TARBORO*       NOT AVBL
GOLDSBORO      SUNNY     88  77  70 VRB5      30.09R HX 100
WASHINGTON     CLOUDY    85  76  72 E3        30.10R HX  95
GREENVILLE     CLOUDY    86  73  66 CALM      30.11R
NEW BERN       PTSUNNY   84  77  79 CALM      30.11S
WILMINGTON     PTSUNNY   84  78  82 E5        30.10R HX  95
$$

VAZ048-201600-
ELSEWHERE

CITY           SKY/WX    TMP DP  RH WIND       PRES   REMARKS
HARRISBURG PA  SUNNY     76  61  59 VRB3      30.12R
BALTIMORE      SUNNY     77  60  55 VRB6      30.13R
ANNAPOLIS      SUNNY     80  61  52 N8        30.12R
ANDREWS AFB    SUNNY     78  61  55 N6        30.13R
PHILADELPHIA   MOSUNNY   78  57  48 NW10      30.10R
HENDERSON NC   SUNNY     80  69  67 NE5       30.12S
GREENSBORO     MOSUNNY   85  68  56 E9        30.14R
ROCKY MOUNT    SUNNY     87  73  62 VRB3      30.11R
$$

VAZ100-201600-
MARINE

STATION/POSITION TIME  TEMP    WIND        PRES    WAVE   SWELL
                       AIR SEA DIR/SP/G            HT/PER HT/PER
                 (UTC) (F)     (DEG/KT/KT) (MB)    (FT/S) (FT/S)
BRANDYWINE LGT   1436   73     350/ 10/ 11 1019.8R
CAPE MAY NJ      1448   78 78   CALM  /  3 1018.9R
LEWES DE         1448   74 78  340/ 12/ 14 1019.3R
15NM E FENWICK I 1450   75 78  330/ 12/ 14 1019.6R   2/ 6   2/ 6
OCEAN-CITY-INLET 1448   78 76  360/  5/  7 1019.7R
WACHAPREAGUE VA  1448   80 83   70/  7/  9 1019.5R
THOMAS POINT MD  1500   76 80   10/  6/  8   N/A
GOOSES REEF MD   1500   77 80   40/ 10/ 12 1020.7    1/ 2
COVE POINT MD    1448   77      20/  7/ 12 1020.7R
SOLOMONS ISLAND  1448   77 81  340/  9/ 11   N/A
BISHOPS HEAD MD  1448   79 81   20/  6/  9 1019.8R
PINEY POINT MD   1448           50/  4/  5   N/A
POTOMAC MD       1500   78 82   40/  8/ 10 1019.1    1
CAMBRIDGE MD     1448   81 83              1020.7R
LEWISETTA VA     1448   80 83   30/  6/  8 1019.7R
RAPPAHANNOCK LGT 1448           10/ 11/ 13 1020.2R
STINGRAY PT      1500   80 82   50/ 10/ 12 1019.9    2/ 3
YORK RVR RNG VA  1448   81      60/ 12/ 13 1019.9R
YORKTOWN VA      1448   81 82   70/  8/ 10 1019.2R
JAMESTOWN VA     1500      85   60/  4/  6   N/A     0
DOMINION TERM VA 1448   83      90/  3/  7 1019.3R
KIPTOPEKE VA     1448      81   70/  8/ 11   N/A
CHES BAY BRIDGE  1448   80 78   60/  5/  6 1019.2R
CAPE HENRY VA    1448   80      50/  5/  6   N/A
WILLOUBY STN VA  1448   80      40/  8/  9 1019.4R
S CRANEY ISL VA  1448   82      20/  7/  8 1019.0R
CAPE HENRY BUOY  1430      80                N/A     2/ 9
1ST LANDING BUOY 1500   81 80              1019.1    1
64NM E OF VA BCH 1450   79 79   10/  6/  8 1019.4R   2/ 8   2/ 8
DUCK PIER NC     1448   78 73   20/  5/  5 1018.8R
44100 DUCK FRF   1405      81                N/A     2/ 9
44056 DUCK FRF   1430      79                N/A     2/ 9
OREGON INLET NC  1442   81 79   30/  5/  7 1018.9R
HATTERAS NC      1448   79 80  260/  3/  4 1019.1R
DIAMOND SHLS NC  1450   81 84  280/  4/  6 1019.2R   3/ 9   2/ 9
CAPE LOOKOUT NC  1500   78     210/  3/  4 1019.2R
$$




USA.gov is the U.S. government's official web portal to all federal, state and local government web resources and services.